Windsor, Ontario

5:50 AM EDT on May 25, 2018 (GMT -0400)
Windsor

Weather History for CYQG - October, 2012

Change the Weather History Date:

Friday, October 5, 2012

  Actual Average Record
Temperature  
Mean Temperature 56 °F -  
Max Temperature 66 °F 58 °F 86 °F (2007)
Min Temperature 46 °F 41 °F 35 °F (2003)
Degree Days  
Heating Degree Days 9    
Growing Degree Days 6 (Base 50)    
Moisture  
Dew Point 49 °F    
Average Humidity 71    
Maximum Humidity 100    
Minimum Humidity 51    
Precipitation  
Precipitation 0.16 in 0.08 in - ()
Sea Level Pressure  
Sea Level Pressure 30.03 in    
Wind  
Wind Speed 9 mph ()    
Max Wind Speed 14 mph    
Max Gust Speed 21 mph    
Visibility 13.8 miles    
Events Rain    
Averages and records for this station are not official NWS values.
T = Trace of Precipitation, MM = Missing Value Source: Averaged Metar Reports

Daily Weather History Graph

Daily Weather History Graph

Search for Another Location

Airport or City:

Astronomy

Oct. 05, 2012 Rise Set
Actual Time 7:33 AM EDT 7:05 PM EDT
Civil Twilight 7:05 AM EDT 7:33 PM EDT
Nautical Twilight 6:33 AM EDT 8:06 PM EDT
Astronomical Twilight 6:00 AM EDT 8:38 PM EDT
Moon 10:23 PM EDT (10/5) 12:45 PM EDT (10/5)
Length of Visible Light 12h 27m
Length of Day
11h 31m
Waning Gibbous, 74% of the Moon is Illuminated
Oct 5
Waning Gibbous
Oct 8
Last Quarter
Oct 15
New
Oct 21
First Quarter
Oct 29
Full

Hourly Weather History & Observations

Time (EDT) Temp. Windchill Dew Point Humidity Pressure Visibility Wind Dir Wind Speed Gust Speed Precip Events Conditions
12:00 AM 68.0 °F - 57.2 °F 68% 30.02 in 15.0 mi SW 9.2 mph - N/A   Mostly Cloudy
1:00 AM 68.0 °F - 55.4 °F 64% 30.02 in 15.0 mi West 11.5 mph - N/A   Overcast
2:00 AM 66 °F - 58 °F 67% 30.02 in 15 mi West 9.2 mph - -   Overcast
2:00 AM 66.2 °F - 57.2 °F 73% 30.02 in 15.0 mi West 9.2 mph 17.3 mph N/A   Overcast
3:00 AM 64.4 °F - 57.2 °F 77% 30.01 in 15.0 mi WSW 10.4 mph - N/A   Overcast
4:00 AM 64.4 °F - 57.2 °F 77% 30.01 in 15.0 mi WSW 10.4 mph - N/A   Overcast
5:00 AM 62.6 °F - 55.4 °F 77% 30.03 in 15.0 mi West 13.8 mph - N/A   Overcast
6:00 AM 59.0 °F - 50.0 °F 72% 30.05 in 15.0 mi West 12.7 mph 20.7 mph N/A   Overcast
7:00 AM 59.0 °F - 48.2 °F 67% 30.05 in 15.0 mi West 10.4 mph - N/A   Overcast
8:00 AM 57.2 °F - 48.2 °F 72% 30.07 in 15.0 mi SW 10.4 mph - N/A   Mostly Cloudy
9:00 AM 57.2 °F - 48.2 °F 72% 30.07 in 15.0 mi West 11.5 mph - N/A   Mostly Cloudy
10:00 AM 57.2 °F - 48.2 °F 72% 30.06 in 15.0 mi West 12.7 mph - N/A   Overcast
11:00 AM 57.2 °F - 46.4 °F 67% 30.06 in 15.0 mi West 9.2 mph - N/A   Overcast
12:00 PM 59.0 °F - 46.4 °F 63% 30.05 in 15.0 mi West 10.4 mph - N/A   Overcast
1:00 PM 59.0 °F - 46.4 °F 63% 30.04 in 15.0 mi West 11.5 mph - N/A   Overcast
2:00 PM 59 °F - 46 °F 51% 30.04 in 15 mi West 10.4 mph - -   Overcast
2:00 PM 59.0 °F - 46.4 °F 63% 30.04 in 15.0 mi West 11.5 mph - N/A   Overcast
3:00 PM 57.2 °F - 44.6 °F 63% 30.02 in 15.0 mi West 9.2 mph - N/A   Overcast
4:00 PM 57.2 °F - 42.8 °F 59% 30.00 in 15.0 mi WSW 12.7 mph - N/A   Overcast
5:00 PM 57.2 °F - 41.0 °F 55% 29.99 in 15.0 mi WSW 11.5 mph - N/A   Overcast
5:03 PM - - - N/A% - 15.0 mi West 11.5 mph - N/A Rain Light Rain Showers
5:32 PM - - - N/A% - 12.0 mi WSW 9.2 mph - N/A   Overcast
5:54 PM - - - N/A% - 12.0 mi West 11.5 mph - N/A Rain Light Rain Showers
6:00 PM 55.4 °F - 42.8 °F 63% 29.99 in 10.0 mi West 12.7 mph - N/A Rain Light Rain Showers
7:00 PM 51.8 °F - 44.6 °F 76% 30.00 in 12.0 mi WSW 8.1 mph - N/A   Overcast
8:00 PM 49 °F - 45 °F 81% 30.01 in 7 mi West 10.4 mph - - Rain Light Rain Showers
8:00 PM 50.0 °F - 44.6 °F 82% 30.01 in 7.0 mi West 10.4 mph - N/A Rain Light Rain Showers
9:00 PM 48.2 °F - 44.6 °F 87% 30.01 in 12.0 mi WNW 10.4 mph - N/A Rain Light Rain Showers
10:00 PM 46.4 °F 43.5 °F 46.4 °F 100% 30.00 in 12.0 mi West 5.8 mph - N/A Rain Light Rain Showers
11:00 PM 46.4 °F 42.9 °F 44.6 °F 93% 29.99 in 15.0 mi West 6.9 mph - N/A Rain Light Rain Showers